QPF
0.02 0.03 0.02 0.03 0.02 0.01 0.02 0.02 0.02 0.02 0.02 0.02 0.01 0.01 0.01 0.01 0.00 0.00 0.01 0.01 0.01 0.01 0.01 0.01 0.01 0.02 0.01 0.01 0.01 0.01 0.01 0.01 0.00 0.00 0.01 0.01 0.01 0.00 0.01 0.02 0.01 0.01 0.01
0.02 0.02 0.02 0.03 0.03 0.02 0.01 0.02 0.02 0.01 0.01 0.02 0.02 0.02 0.02 0.01 0.00 0.00 0.00 0.00 0.01 0.01 0.00 0.01 0.01 0.02 0.02 0.01 0.01 0.01 0.01 0.01 0.00 0.00 0.01 0.01 0.01 0.00 0.01 0.02 0.02 0.01 0.01
0.02 0.01 0.01 0.01 0.02 0.02 0.02 0.02 0.02 0.02 0.01 0.01 0.02 0.02 0.02 0.01 0.01 0.01 0.01 0.01 0.01 0.02 0.02 0.01 0.01 0.02 0.02 0.02 0.01 0.01 0.01 0.01 0.00 0.01 0.00 0.00 0.01 0.00 0.00 0.01 0.02 0.02 0.01
0.02 0.01 0.01 0.01 0.01 0.01 0.02 0.02 0.02 0.01 0.01 0.01 0.01 0.02 0.02 0.01 0.01 0.01 0.02 0.02 0.02 0.03 0.03 0.03 0.02 0.02 0.02 0.02 0.02 0.01 0.01 0.01 0.01 0.01 0.01 0.01 0.01 0.01 0.00 0.01 0.01 0.01 0.01
0.02 0.01 0.01 0.01 0.01 0.01 0.01 0.02 0.02 0.01 0.01 0.01 0.01 0.01 0.01 0.01 0.01 0.01 0.02 0.02 0.02 0.03 0.03 0.03 0.03 0.03 0.03 0.03 0.02 0.02 0.02 0.01 0.01 0.01 0.01 0.00 0.01 0.01 0.01 0.01 0.01 0.01 0.01
0.02 0.01 0.01 0.01 0.01 0.01 0.01 0.01 0.02 0.02 0.02 0.01 0.01 0.01 0.01 0.01 0.01 0.01 0.02 0.02 0.02 0.02 0.03 0.02 0.03 0.04 0.04 0.03 0.03 0.03 0.02 0.02 0.02 0.02 0.02 0.01 0.01 0.01 0.01 0.02 0.01 0.01 0.01
0.03 0.01 0.01 0.01 0.01 0.01 0.00 0.01 0.01 0.02 0.03 0.03 0.02 0.02 0.02 0.02 0.02 0.02 0.01 0.01 0.02 0.01 0.02 0.02 0.03 0.04 0.03 0.02 0.03 0.03 0.03 0.02 0.02 0.02 0.02 0.02 0.02 0.02 0.02 0.02 0.02 0.01 0.01
0.02 0.01 0.01 0.01 0.01 0.01 0.01 0.01 0.01 0.01 0.03 0.03 0.03 0.03 0.03 0.02 0.03 0.02 0.01 0.01 0.01 0.01 0.01 0.02 0.03 0.04 0.02 0.01 0.01 0.02 0.02 0.02 0.02 0.02 0.02 0.02 0.02 0.01 0.01 0.01 0.01 0.01 0.01
0.01 0.01 0.02 0.01 0.02 0.02 0.02 0.01 0.01 0.01 0.02 0.02 0.03 0.02 0.02 0.02 0.02 0.02 0.01 0.01 0.01 0.01 0.01 0.01 0.02 0.02 0.02 0.01 0.01 0.01 0.01 0.02 0.02 0.02 0.02 0.01 0.01 0.01 0.01 0.01 0.01 0.01 0.01
0.02 0.02 0.02 0.02 0.02 0.03 0.03 0.02 0.02 0.02 0.02 0.02 0.03 0.03 0.03 0.03 0.02 0.03 0.02 0.01 0.01 0.01 0.01 0.01 0.01 0.01 0.01 0.01 0.00 0.00 0.00 0.01 0.02 0.02 0.01 0.01 0.01 0.01 0.01 0.01 0.00 0.00 0.00
0.03 0.02 0.03 0.03 0.03 0.02 0.02 0.01 0.01 0.02 0.02 0.03 0.03 0.04 0.04 0.04 0.03 0.03 0.03 0.02 0.01 0.01 0.01 0.00 0.00 0.00 0.01 0.01 0.00 0.00 0.00 0.01 0.01 0.01 0.01 0.01 0.01 0.01 0.01 0.00 0.00 0.00 0.00
0.02 0.03 0.03 0.04 0.03 0.03 0.03 0.02 0.02 0.02 0.03 0.02 0.03 0.04 0.05 0.04 0.04 0.03 0.03 0.02 0.02 0.01 0.01 0.00 0.00 0.01 0.01 0.01 0.00 0.00 0.00 0.00 0.00 0.00 0.01 0.01 0.01 0.01 0.01 0.00 0.00 0.00 0.00
0.03 0.03 0.03 0.03 0.03 0.03 0.03 0.02 0.02 0.03 0.03 0.03 0.03 0.05 0.05 0.04 0.04 0.03 0.02 0.02 0.02 0.01 0.01 0.01 0.01 0.01 0.01 0.00 0.00 0.00 0.00 0.00 0.00 0.00 0.00 0.01 0.01 0.01 0.01 0.01 0.01 0.01 0.01
0.04 0.04 0.04 0.04 0.04 0.03 0.03 0.03 0.02 0.02 0.03 0.03 0.03 0.04 0.04 0.04 0.03 0.02 0.02 0.02 0.01 0.01 0.01 0.01 0.01 0.00 0.00 0.00 0.00 0.00 0.00 0.00 0.01 0.01 0.00 0.01 0.01 0.01 0.02 0.02 0.02 0.01 0.01
0.03 0.04 0.05 0.05 0.05 0.04 0.03 0.03 0.04 0.03 0.02 0.02 0.02 0.02 0.03 0.03 0.03 0.02 0.02 0.02 0.02 0.01 0.01 0.01 0.01 0.00 0.00 0.00 0.00 0.00 0.00 0.01 0.01 0.01 0.01 0.01 0.01 0.01 0.02 0.02 0.01 0.02 0.02
0.05 0.04 0.04 0.04 0.03 0.03 0.03 0.03 0.04 0.04 0.03 0.02 0.02 0.02 0.02 0.03 0.03 0.02 0.02 0.02 0.02 0.02 0.02 0.01 0.01 0.01 0.01 0.00 0.00 0.00 0.01 0.01 0.01 0.01 0.02 0.01 0.01 0.02 0.02 0.02 0.03 0.03 0.03
0.06 0.04 0.04 0.04 0.04 0.03 0.02 0.02 0.02 0.03 0.04 0.03 0.02 0.01 0.01 0.02 0.03 0.03 0.03 0.03 0.02 0.02 0.02 0.01 0.01 0.01 0.01 0.00 0.00 0.00 0.01 0.02 0.01 0.01 0.02 0.01 0.02 0.02 0.03 0.02 0.03 0.04 0.04
0.04 0.04 0.03 0.04 0.04 0.05 0.05 0.04 0.03 0.03 0.04 0.04 0.03 0.03 0.02 0.01 0.02 0.02 0.02 0.03 0.02 0.02 0.03 0.02 0.02 0.01 0.01 0.01 0.01 0.01 0.01 0.02 0.02 0.01 0.01 0.01 0.01 0.02 0.02 0.02 0.03 0.03 0.04
0.03 0.03 0.03 0.03 0.03 0.04 0.04 0.04 0.04 0.04 0.04 0.04 0.05 0.05 0.05 0.03 0.02 0.02 0.02 0.01 0.02 0.03 0.03 0.03 0.03 0.03 0.02 0.02 0.01 0.01 0.01 0.02 0.02 0.02 0.02 0.02 0.02 0.02 0.02 0.02 0.03 0.04 0.05
0.03 0.04 0.03 0.03 0.04 0.05 0.04 0.04 0.04 0.04 0.04 0.04 0.03 0.04 0.05 0.05 0.04 0.03 0.02 0.02 0.02 0.02 0.03 0.03 0.03 0.03 0.03 0.02 0.02 0.01 0.01 0.02 0.02 0.02 0.02 0.02 0.01 0.02 0.02 0.02 0.03 0.04 0.05
0.04 0.04 0.03 0.03 0.03 0.04 0.04 0.03 0.03 0.03 0.03 0.03 0.03 0.04 0.05 0.05 0.05 0.05 0.04 0.03 0.02 0.02 0.02 0.02 0.02 0.02 0.02 0.02 0.02 0.02 0.02 0.03 0.04 0.03 0.03 0.02 0.02 0.02 0.02 0.02 0.03 0.04 0.05
0.04 0.03 0.03 0.03 0.03 0.03 0.03 0.03 0.03 0.03 0.03 0.03 0.03 0.05 0.05 0.04 0.03 0.03 0.03 0.03 0.03 0.03 0.03 0.03 0.03 0.03 0.03 0.03 0.03 0.03 0.03 0.04 0.05 0.06 0.05 0.04 0.03 0.02 0.02 0.02 0.02 0.03 0.04
0.02 0.02 0.02 0.02 0.03 0.03 0.03 0.03 0.03 0.03 0.04 0.04 0.04 0.04 0.04 0.04 0.04 0.04 0.04 0.04 0.04 0.03 0.03 0.03 0.03 0.02 0.02 0.02 0.02 0.02 0.02 0.03 0.04 0.05 0.04 0.02 0.02 0.02 0.02 0.02 0.02 0.03 0.03
0.02 0.02 0.03 0.03 0.03 0.02 0.02 0.02 0.03 0.03 0.04 0.04 0.05 0.04 0.04 0.04 0.04 0.04 0.04 0.04 0.04 0.04 0.03 0.03 0.02 0.02 0.01 0.01 0.01 0.01 0.02 0.02 0.03 0.03 0.03 0.03 0.02 0.02 0.02 0.02 0.02 0.02 0.02
0.02 0.03 0.03 0.03 0.03 0.03 0.02 0.02 0.01 0.02 0.03 0.04 0.04 0.04 0.03 0.03 0.03 0.03 0.03 0.02 0.02 0.03 0.03 0.03 0.02 0.02 0.02 0.01 0.01 0.01 0.02 0.03 0.03 0.03 0.03 0.03 0.02 0.02 0.02 0.02 0.02 0.02 0.02
0.02 0.02 0.02 0.02 0.03 0.03 0.02 0.02 0.01 0.01 0.01 0.01 0.02 0.02 0.02 0.02 0.02 0.02 0.02 0.01 0.01 0.01 0.02 0.02 0.02 0.02 0.02 0.01 0.01 0.02 0.02 0.02 0.03 0.03 0.03 0.03 0.02 0.02 0.02 0.01 0.01 0.02 0.02
MSLP
1012.64 1012.82 1013.08 1013.38 1013.68 1013.96 1014.20 1014.40 1014.57 1014.71 1014.84 1014.96 1015.05 1015.13 1015.18 1015.19 1015.16 1015.10 1015.04 1014.99 1014.98 1015.02 1015.13 1015.29 1015.48 1015.70 1015.91 1016.08 1016.22 1016.32 1016.39 1016.46 1016.53 1016.62 1016.75 1016.89 1017.03 1017.14 1017.20 1017.17 1017.06 1016.85 1016.56
1012.35 1012.37 1012.46 1012.62 1012.81 1013.02 1013.22 1013.42 1013.61 1013.80 1013.98 1014.15 1014.31 1014.43 1014.51 1014.55 1014.55 1014.51 1014.45 1014.40 1014.38 1014.41 1014.49 1014.63 1014.81 1015.02 1015.23 1015.43 1015.62 1015.78 1015.93 1016.08 1016.24 1016.41 1016.60 1016.80 1016.99 1017.13 1017.21 1017.21 1017.12 1016.95 1016.70
1012.23 1012.06 1011.97 1011.96 1012.00 1012.08 1012.20 1012.35 1012.53 1012.73 1012.95 1013.18 1013.40 1013.59 1013.73 1013.83 1013.87 1013.87 1013.85 1013.81 1013.80 1013.82 1013.88 1014.00 1014.16 1014.36 1014.57 1014.79 1015.00 1015.22 1015.43 1015.65 1015.88 1016.12 1016.37 1016.62 1016.84 1017.01 1017.13 1017.16 1017.11 1016.99 1016.80
1012.23 1011.88 1011.60 1011.39 1011.25 1011.17 1011.17 1011.23 1011.36 1011.55 1011.78 1012.05 1012.33 1012.59 1012.81 1012.98 1013.09 1013.16 1013.18 1013.18 1013.19 1013.21 1013.27 1013.37 1013.51 1013.69 1013.90 1014.12 1014.36 1014.60 1014.85 1015.12 1015.39 1015.68 1015.97 1016.25 1016.50 1016.71 1016.86 1016.94 1016.95 1016.89 1016.78
1012.32 1011.81 1011.34 1010.93 1010.59 1010.34 1010.17 1010.11 1010.16 1010.29 1010.52 1010.80 1011.11 1011.43 1011.73 1011.98 1012.17 1012.31 1012.40 1012.45 1012.50 1012.54 1012.61 1012.70 1012.83 1013.00 1013.19 1013.40 1013.64 1013.89 1014.16 1014.44 1014.74 1015.04 1015.35 1015.64 1015.92 1016.16 1016.35 1016.49 1016.57 1016.60 1016.59
1012.44 1011.80 1011.17 1010.58 1010.05 1009.61 1009.27 1009.07 1008.99 1009.04 1009.21 1009.48 1009.80 1010.15 1010.50 1010.82 1011.09 1011.30 1011.47 1011.59 1011.68 1011.76 1011.85 1011.96 1012.08 1012.24 1012.42 1012.62 1012.85 1013.09 1013.34 1013.62 1013.90 1014.20 1014.50 1014.79 1015.08 1015.35 1015.59 1015.79 1015.96 1016.09 1016.19
1012.55 1011.81 1011.06 1010.32 1009.63 1009.02 1008.51 1008.15 1007.93 1007.87 1007.95 1008.15 1008.44 1008.79 1009.16 1009.52 1009.85 1010.13 1010.37 1010.56 1010.71 1010.85 1010.98 1011.11 1011.25 1011.41 1011.59 1011.78 1011.98 1012.20 1012.43 1012.68 1012.93 1013.20 1013.47 1013.75 1014.04 1014.33 1014.61 1014.88 1015.14 1015.38 1015.59
1012.61 1011.83 1011.00 1010.16 1009.34 1008.58 1007.92 1007.40 1007.03 1006.82 1006.78 1006.88 1007.10 1007.40 1007.76 1008.12 1008.48 1008.82 1009.12 1009.37 1009.60 1009.80 1009.99 1010.17 1010.34 1010.52 1010.71 1010.90 1011.09 1011.28 1011.48 1011.68 1011.90 1012.12 1012.36 1012.62 1012.90 1013.20 1013.51 1013.84 1014.17 1014.50 1014.82
1012.61 1011.83 1010.97 1010.07 1009.15 1008.28 1007.48 1006.81 1006.28 1005.91 1005.72 1005.68 1005.79 1006.01 1006.31 1006.66 1007.03 1007.39 1007.74 1008.07 1008.37 1008.65 1008.91 1009.15 1009.38 1009.60 1009.81 1010.01 1010.20 1010.38 1010.55 1010.72 1010.89 1011.08 1011.28 1011.51 1011.77 1012.07 1012.40 1012.76 1013.15 1013.55 1013.95
1012.55 1011.79 1010.93 1010.00 1009.02 1008.06 1007.14 1006.32 1005.63 1005.10 1004.74 1004.55 1004.52 1004.63 1004.85 1005.15 1005.51 1005.89 1006.29 1006.68 1007.06 1007.42 1007.76 1008.08 1008.39 1008.66 1008.92 1009.15 1009.35 1009.53 1009.70 1009.84 1009.99 1010.14 1010.32 1010.52 1010.76 1011.05 1011.38 1011.76 1012.17 1012.61 1013.04
1012.43 1011.69 1010.83 1009.88 1008.86 1007.82 1006.80 1005.84 1004.99 1004.29 1003.75 1003.40 1003.22 1003.21 1003.35 1003.60 1003.94 1004.34 1004.78 1005.24 1005.70 1006.15 1006.59 1007.00 1007.38 1007.72 1008.03 1008.31 1008.54 1008.75 1008.92 1009.07 1009.21 1009.35 1009.51 1009.69 1009.92 1010.19 1010.51 1010.88 1011.29 1011.73 1012.17
1012.22 1011.49 1010.63 1009.65 1008.58 1007.45 1006.32 1005.23 1004.22 1003.35 1002.65 1002.14 1001.83 1001.71 1001.77 1001.98 1002.31 1002.74 1003.24 1003.77 1004.32 1004.87 1005.39 1005.89 1006.35 1006.77 1007.15 1007.47 1007.75 1007.99 1008.20 1008.37 1008.53 1008.68 1008.84 1009.03 1009.24 1009.50 1009.81 1010.16 1010.54 1010.95 1011.36
1011.92 1011.16 1010.26 1009.23 1008.08 1006.86 1005.60 1004.37 1003.21 1002.19 1001.33 1000.69 1000.27 1000.07 1000.08 1000.28 1000.64 1001.12 1001.68 1002.30 1002.94 1003.58 1004.20 1004.78 1005.31 1005.80 1006.24 1006.62 1006.95 1007.24 1007.49 1007.70 1007.90 1008.08 1008.27 1008.47 1008.69 1008.94 1009.23 1009.54 1009.89 1010.25 1010.61
1011.49 1010.66 1009.69 1008.56 1007.31 1005.96 1004.57 1003.19 1001.89 1000.73 999.75 999.00 998.51 998.27 998.28 998.51 998.92 999.48 1000.13 1000.85 1001.58 1002.31 1003.01 1003.67 1004.27 1004.81 1005.30 1005.73 1006.11 1006.45 1006.75 1007.02 1007.26 1007.49 1007.72 1007.94 1008.18 1008.43 1008.70 1008.98 1009.28 1009.59 1009.89
1010.93 1009.99 1008.89 1007.64 1006.25 1004.76 1003.22 1001.70 1000.27 999.00 997.93 997.12 996.61 996.38 996.43 996.72 997.22 997.88 998.65 999.47 1000.30 1001.12 1001.89 1002.60 1003.25 1003.83 1004.35 1004.81 1005.23 1005.61 1005.96 1006.28 1006.58 1006.86 1007.12 1007.38 1007.64 1007.89 1008.15 1008.40 1008.66 1008.91 1009.16
1010.24 1009.16 1007.92 1006.51 1004.97 1003.33 1001.65 1000.01 998.47 997.12 996.01 995.19 994.69 994.52 994.65 995.05 995.67 996.45 997.33 998.26 999.19 1000.08 1000.90 1001.65 1002.33 1002.93 1003.46 1003.94 1004.38 1004.78 1005.16 1005.52 1005.85 1006.17 1006.47 1006.76 1007.02 1007.28 1007.51 1007.74 1007.96 1008.16 1008.35
1009.45 1008.23 1006.84 1005.29 1003.60 1001.83 1000.04 998.30 996.70 995.32 994.20 993.41 992.98 992.90 993.14 993.66 994.41 995.31 996.31 997.34 998.35 999.29 1000.16 1000.93 1001.61 1002.20 1002.73 1003.20 1003.64 1004.05 1004.44 1004.81 1005.16 1005.49 1005.80 1006.09 1006.35 1006.58 1006.79 1006.98 1007.16 1007.32 1007.46
1008.63 1007.29 1005.79 1004.12 1002.34 1000.48 998.62 996.84 995.23 993.85 992.78 992.06 991.72 991.75 992.11 992.75 993.62 994.63 995.73 996.83 997.89 998.88 999.76 1000.53 1001.20 1001.77 1002.28 1002.73 1003.14 1003.53 1003.90 1004.25 1004.59 1004.90 1005.18 1005.44 1005.66 1005.85 1006.01 1006.15 1006.27 1006.37 1006.47
1007.86 1006.46 1004.89 1003.18 1001.35 999.47 997.61 995.86 994.29 992.98 991.99 991.37 991.14 991.27 991.74 992.49 993.45 994.54 995.70 996.84 997.93 998.92 999.80 1000.55 1001.19 1001.74 1002.20 1002.61 1002.99 1003.33 1003.66 1003.96 1004.24 1004.50 1004.72 1004.90 1005.04 1005.15 1005.24 1005.30 1005.34 1005.38 1005.42
1007.24 1005.84 1004.28 1002.59 1000.81 998.99 997.21 995.54 994.08 992.88 992.01 991.50 991.38 991.62 992.17 992.99 993.99 995.12 996.28 997.43 998.51 999.47 1000.32 1001.03 1001.63 1002.13 1002.56 1002.92 1003.24 1003.52 1003.78 1004.01 1004.20 1004.36 1004.48 1004.56 1004.59 1004.59 1004.56 1004.51 1004.46 1004.41 1004.37
1006.84 1005.51 1004.05 1002.47 1000.81 999.13 997.50 996.00 994.69 993.64 992.92 992.53 992.50 992.81 993.41 994.25 995.25 996.35 997.48 998.58 999.60 1000.51 1001.29 1001.96 1002.50 1002.95 1003.32 1003.63 1003.88 1004.10 1004.28 1004.41 1004.50 1004.54 1004.53 1004.47 1004.36 1004.22 1004.05 1003.88 1003.71 1003.55 1003.43
1006.73 1005.54 1004.24 1002.84 1001.37 999.90 998.49 997.19 996.08 995.22 994.64 994.37 994.42 994.77 995.37 996.18 997.12 998.15 999.19 1000.19 1001.11 1001.93 1002.64 1003.23 1003.72 1004.11 1004.42 1004.67 1004.86 1005.00 1005.09 1005.12 1005.09 1005.01 1004.86 1004.65 1004.39 1004.10 1003.79 1003.48 1003.18 1002.91 1002.68
1006.94 1005.94 1004.84 1003.67 1002.45 1001.24 1000.08 999.02 998.13 997.46 997.03 996.86 996.96 997.31 997.88 998.60 999.45 1000.35 1001.25 1002.12 1002.92 1003.62 1004.23 1004.73 1005.14 1005.47 1005.73 1005.92 1006.04 1006.11 1006.11 1006.05 1005.91 1005.70 1005.42 1005.08 1004.68 1004.26 1003.81 1003.38 1002.96 1002.57 1002.24
1007.46 1006.65 1005.78 1004.86 1003.91 1002.97 1002.07 1001.27 1000.60 1000.10 999.80 999.72 999.85 1000.17 1000.67 1001.29 1001.99 1002.73 1003.47 1004.18 1004.83 1005.40 1005.89 1006.30 1006.63 1006.89 1007.08 1007.21 1007.28 1007.27 1007.20 1007.05 1006.82 1006.51 1006.13 1005.68 1005.18 1004.65 1004.11 1003.58 1003.06 1002.59 1002.16
1008.23 1007.63 1006.98 1006.30 1005.60 1004.91 1004.26 1003.69 1003.22 1002.88 1002.70 1002.67 1002.81 1003.09 1003.49 1003.98 1004.53 1005.11 1005.67 1006.21 1006.70 1007.12 1007.49 1007.79 1008.04 1008.22 1008.35 1008.41 1008.42 1008.36 1008.23 1008.01 1007.72 1007.34 1006.89 1006.38 1005.82 1005.23 1004.64 1004.05 1003.48 1002.95 1002.46
1009.21 1008.77 1008.32 1007.84 1007.36 1006.89 1006.46 1006.08 1005.77 1005.57 1005.47 1005.48 1005.61 1005.84 1006.14 1006.51 1006.90 1007.31 1007.70 1008.07 1008.40 1008.69 1008.93 1009.12 1009.28 1009.38 1009.44 1009.44 1009.40 1009.28 1009.10 1008.84 1008.51 1008.10 1007.62 1007.09 1006.52 1005.92 1005.32 1004.73 1004.16 1003.61 1003.09
Thickness
5693 5691 5690 5688 5686 5685 5683 5681 5680 5679 5678 5676 5675 5673 5671 5668 5666 5664 5662 5660 5658 5657 5655 5654 5653 5652 5650 5649 5647 5646 5643 5641 5637 5636 5637 5638 5638 5638 5638 5637 5637 5636 5636
5689 5687 5685 5684 5682 5680 5679 5678 5677 5675 5674 5672 5671 5668 5666 5664 5662 5660 5658 5656 5654 5652 5651 5650 5648 5647 5645 5644 5642 5641 5640 5639 5635 5632 5632 5632 5632 5633 5633 5632 5632 5632 5631
5684 5682 5680 5678 5676 5675 5675 5674 5673 5672 5670 5668 5666 5664 5662 5660 5658 5656 5655 5653 5651 5649 5647 5645 5644 5642 5640 5639 5638 5637 5636 5636 5633 5629 5627 5627 5627 5628 5627 5626 5627 5626 5626
5678 5676 5674 5673 5672 5671 5670 5669 5668 5667 5665 5664 5663 5661 5659 5657 5655 5653 5650 5648 5646 5645 5643 5642 5640 5639 5637 5636 5634 5633 5631 5629 5627 5625 5623 5622 5621 5621 5620 5619 5619 5620 5620
5671 5670 5669 5669 5668 5667 5665 5665 5664 5663 5662 5660 5659 5657 5655 5653 5651 5649 5646 5644 5641 5639 5638 5637 5636 5636 5635 5633 5632 5629 5627 5623 5621 5618 5617 5616 5615 5614 5614 5614 5613 5613 5614
5666 5665 5664 5664 5663 5662 5661 5660 5659 5658 5657 5656 5654 5652 5650 5650 5648 5646 5643 5640 5637 5635 5633 5632 5631 5631 5630 5629 5628 5627 5624 5620 5617 5614 5612 5611 5611 5610 5610 5610 5607 5606 5606
5659 5659 5658 5658 5657 5657 5656 5654 5653 5652 5651 5650 5649 5647 5646 5645 5644 5642 5639 5636 5633 5630 5628 5627 5627 5626 5624 5622 5621 5621 5619 5618 5617 5613 5610 5609 5608 5608 5606 5604 5603 5602 5602
5653 5652 5652 5652 5651 5650 5649 5648 5647 5646 5645 5644 5643 5642 5640 5640 5639 5637 5635 5631 5628 5627 5625 5623 5621 5619 5619 5617 5615 5613 5612 5611 5611 5610 5608 5607 5606 5605 5603 5603 5601 5598 5598
5647 5646 5646 5645 5644 5643 5642 5642 5641 5640 5639 5638 5637 5636 5634 5634 5633 5632 5630 5626 5623 5621 5620 5619 5617 5615 5614 5613 5610 5607 5605 5605 5605 5604 5604 5603 5601 5600 5598 5596 5593 5591 5590
5641 5641 5641 5640 5638 5638 5637 5636 5636 5635 5634 5633 5631 5630 5629 5628 5628 5627 5625 5621 5617 5615 5613 5612 5612 5611 5610 5608 5604 5602 5599 5599 5598 5598 5597 5596 5595 5594 5593 5592 5590 5587 5585
5636 5635 5634 5633 5633 5632 5632 5631 5630 5629 5627 5626 5625 5624 5623 5623 5622 5621 5619 5616 5613 5610 5608 5606 5605 5605 5604 5602 5600 5598 5596 5594 5592 5591 5590 5589 5588 5587 5587 5587 5586 5585 5582
5629 5628 5627 5626 5627 5626 5624 5624 5623 5622 5619 5618 5616 5616 5616 5616 5615 5614 5613 5611 5609 5605 5603 5601 5600 5599 5597 5596 5594 5592 5591 5588 5585 5583 5582 5581 5580 5580 5581 5581 5580 5580 5579
5620 5619 5619 5619 5618 5618 5617 5615 5614 5613 5612 5611 5609 5608 5608 5608 5607 5607 5606 5605 5603 5600 5598 5597 5594 5592 5590 5589 5588 5586 5584 5581 5578 5576 5575 5575 5575 5575 5574 5573 5572 5572 5572
5611 5610 5610 5609 5609 5609 5609 5608 5607 5605 5604 5603 5602 5602 5601 5600 5599 5598 5597 5596 5594 5592 5590 5589 5587 5585 5582 5581 5579 5578 5576 5574 5572 5571 5570 5569 5568 5567 5566 5565 5563 5563 5561
5600 5601 5600 5599 5599 5598 5598 5598 5599 5600 5599 5598 5597 5596 5594 5593 5594 5593 5590 5588 5587 5585 5581 5578 5576 5573 5571 5570 5569 5569 5568 5567 5565 5564 5563 5562 5561 5560 5559 5558 5556 5555 5553
5590 5590 5589 5589 5588 5588 5587 5588 5590 5591 5591 5591 5591 5589 5589 5588 5587 5585 5583 5582 5580 5578 5574 5570 5568 5567 5565 5564 5563 5562 5561 5560 5560 5558 5557 5556 5555 5554 5552 5551 5549 5548 5546
5581 5580 5579 5579 5579 5578 5578 5578 5579 5581 5581 5581 5580 5580 5580 5579 5578 5576 5575 5573 5571 5569 5566 5564 5563 5561 5560 5559 5558 5557 5556 5555 5554 5553 5552 5550 5549 5547 5545 5544 5542 5541 5540
5571 5571 5570 5569 5569 5568 5568 5569 5569 5570 5570 5569 5570 5570 5570 5569 5568 5566 5565 5562 5560 5559 5558 5558 5556 5555 5554 5553 5552 5551 5550 5548 5547 5546 5545 5544 5542 5540 5539 5537 5535 5534 5533
5561 5560 5560 5559 5559 5559 5559 5559 5559 5559 5559 5558 5557 5558 5558 5557 5556 5555 5554 5553 5552 5551 5550 5549 5549 5548 5548 5547 5546 5545 5544 5543 5542 5540 5539 5538 5536 5534 5532 5531 5529 5528 5526
5550 5551 5551 5549 5548 5547 5547 5548 5548 5547 5547 5547 5547 5547 5546 5544 5543 5543 5543 5543 5542 5542 5541 5541 5541 5540 5540 5539 5538 5537 5537 5536 5535 5534 5533 5531 5530 5528 5526 5525 5523 5520 5519
5540 5540 5540 5539 5537 5537 5537 5537 5537 5536 5536 5536 5536 5536 5536 5535 5534 5534 5533 5533 5533 5533 5533 5533 5532 5532 5531 5531 5530 5530 5530 5529 5529 5528 5526 5524 5523 5521 5520 5518 5516 5514 5511
5530 5529 5529 5528 5527 5527 5527 5526 5526 5525 5525 5525 5525 5525 5525 5525 5524 5524 5524 5523 5523 5523 5524 5524 5524 5523 5523 5522 5522 5522 5522 5522 5521 5520 5519 5517 5516 5514 5513 5510 5508 5505 5503
5521 5520 5519 5518 5517 5517 5517 5516 5515 5515 5515 5514 5514 5514 5513 5513 5513 5514 5514 5514 5513 5513 5513 5514 5514 5514 5513 5513 5514 5514 5514 5514 5513 5513 5511 5509 5507 5506 5504 5502 5500 5497 5495
5512 5511 5509 5508 5507 5506 5506 5506 5505 5505 5505 5504 5504 5503 5503 5503 5503 5504 5503 5503 5503 5503 5503 5503 5504 5504 5504 5504 5504 5504 5504 5504 5504 5504 5503 5501 5499 5497 5495 5492 5491 5489 5487
5504 5502 5500 5499 5498 5497 5496 5496 5495 5495 5495 5495 5495 5494 5494 5494 5493 5493 5493 5493 5493 5493 5493 5494 5494 5493 5493 5494 5494 5494 5494 5494 5494 5493 5493 5491 5490 5488 5486 5483 5481 5479 5477
5495 5493 5491 5490 5489 5488 5487 5487 5486 5486 5486 5486 5486 5485 5484 5484 5484 5484 5483 5483 5483 5483 5484 5484 5484 5484 5484 5484 5485 5485 5485 5485 5484 5483 5482 5481 5479 5477 5475 5473 5471 5469 5467